Time,TemperatureF,DewpointF,PressureIn,WindDirection,WindDirectionDegrees,WindSpeedMPH,WindSpeedGustMPH,Humidity,HourlyPrecipIn,Conditions,Clouds,dailyrainin,SoftwareType,DateUTC
2013-05-25 00:02:00,69.0,61.0,30.17,East,79,1.0,6.0,76,0.00,,,0.00,,2013-05-25 05:02:00,
2013-05-25 00:12:00,69.0,61.0,30.17,East,79,1.0,6.0,76,0.00,,,0.00,,2013-05-25 05:12:00,
2013-05-25 00:22:00,69.0,61.0,30.17,ESE,104,1.0,9.0,76,0.00,,,0.00,,2013-05-25 05:22:00,
2013-05-25 00:32:00,68.0,60.0,30.17,ESE,104,1.0,8.0,76,0.00,,,0.00,,2013-05-25 05:32:00,
2013-05-25 00:42:00,68.0,60.0,30.17,ESE,104,1.0,8.0,76,0.00,,,0.00,,2013-05-25 05:42:00,
2013-05-25 00:52:00,68.0,61.0,30.17,SSE,152,1.0,5.0,77,0.00,,,0.00,,2013-05-25 05:52:00,
2013-05-25 01:02:00,68.0,61.0,30.18,SE,130,1.0,10.0,77,0.00,,,0.00,,2013-05-25 06:02:00,
2013-05-25 01:12:00,68.0,61.0,30.19,ESE,117,0.0,7.0,78,0.00,,,0.00,,2013-05-25 06:12:00,
2013-05-25 01:21:00,68.0,61.0,30.19,ESE,117,0.0,7.0,78,0.00,,,0.00,,2013-05-25 06:21:00,
2013-05-25 01:32:00,67.0,60.0,30.19,SE,136,1.0,4.0,78,0.00,,,0.00,,2013-05-25 06:32:00,
2013-05-25 01:42:00,67.0,60.0,30.19,SE,136,1.0,4.0,78,0.00,,,0.00,,2013-05-25 06:42:00,
2013-05-25 01:52:00,67.0,60.0,30.19,SE,142,1.0,5.0,78,0.00,,,0.00,,2013-05-25 06:52:00,
2013-05-25 02:01:00,67.0,60.0,30.19,SE,126,0.0,7.0,78,0.00,,,0.00,,2013-05-25 07:01:00,
2013-05-25 02:11:00,67.0,60.0,30.19,SE,126,0.0,7.0,78,0.00,,,0.00,,2013-05-25 07:11:00,
2013-05-25 02:21:00,67.0,60.0,30.19,ESE,103,0.0,7.0,78,0.00,,,0.00,,2013-05-25 07:21:00,
2013-05-25 02:32:00,67.0,60.0,30.19,SW,232,0.0,5.0,79,0.00,,,0.00,,2013-05-25 07:32:00,
2013-05-25 02:42:00,67.0,60.0,30.19,SW,232,0.0,5.0,79,0.00,,,0.00,,2013-05-25 07:42:00,
2013-05-25 02:52:00,67.0,60.0,30.20,ESE,122,0.0,7.0,78,0.00,,,0.00,,2013-05-25 07:52:00,
2013-05-25 03:02:00,67.0,60.0,30.20,SSE,158,0.0,4.0,78,0.00,,,0.00,,2013-05-25 08:02:00,
2013-05-25 03:11:00,67.0,60.0,30.20,SSE,158,0.0,4.0,78,0.00,,,0.00,,2013-05-25 08:11:00,
2013-05-25 03:22:00,66.0,59.0,30.20,SSE,162,0.0,2.0,78,0.00,,,0.00,,2013-05-25 08:22:00,
2013-05-25 03:32:00,66.0,59.0,30.20,SE,139,0.0,4.0,79,0.00,,,0.00,,2013-05-25 08:32:00,
2013-05-25 03:42:00,66.0,59.0,30.20,SE,139,0.0,4.0,79,0.00,,,0.00,,2013-05-25 08:42:00,
2013-05-25 03:51:00,66.0,59.0,30.20,SSE,149,0.0,5.0,79,0.00,,,0.00,,2013-05-25 08:51:00,
2013-05-25 04:02:00,66.0,59.0,30.20,ESE,123,0.0,6.0,79,0.00,,,0.00,,2013-05-25 09:02:00,
2013-05-25 04:11:00,66.0,59.0,30.20,ESE,123,0.0,6.0,79,0.00,,,0.00,,2013-05-25 09:11:00,
2013-05-25 04:21:00,66.0,59.0,30.19,SSE,150,0.0,5.0,78,0.00,,,0.00,,2013-05-25 09:21:00,
2013-05-25 04:33:00,66.0,59.0,30.19,ENE,74,2.0,6.0,78,0.00,,,0.00,,2013-05-25 09:33:00,
2013-05-25 04:42:00,66.0,59.0,30.19,ENE,74,2.0,6.0,78,0.00,,,0.00,,2013-05-25 09:42:00,
2013-05-25 04:52:00,66.0,59.0,30.19,SSE,167,0.0,8.0,78,0.00,,,0.00,,2013-05-25 09:52:00,
2013-05-25 05:03:00,66.0,59.0,30.18,South,181,2.0,5.0,78,0.00,,,0.00,,2013-05-25 10:03:00,
2013-05-25 05:12:00,66.0,59.0,30.18,South,181,2.0,5.0,78,0.00,,,0.00,,2013-05-25 10:12:00,
2013-05-25 05:22:00,65.0,58.0,30.18,WSW,255,1.0,7.0,78,0.00,,,0.00,,2013-05-25 10:22:00,
2013-05-25 05:33:00,65.0,58.0,30.19,ESE,122,1.0,5.0,77,0.00,,,0.00,,2013-05-25 10:33:00,
2013-05-25 05:42:00,65.0,58.0,30.19,ESE,122,1.0,5.0,77,0.00,,,0.00,,2013-05-25 10:42:00,
2013-05-25 05:52:00,65.0,57.0,30.20,SE,134,1.0,8.0,76,0.00,,,0.00,,2013-05-25 10:52:00,
2013-05-25 06:02:00,65.0,58.0,30.21,East,79,1.0,5.0,77,0.00,,,0.00,,2013-05-25 11:02:00,
2013-05-25 06:12:00,65.0,58.0,30.21,East,79,1.0,5.0,77,0.00,,,0.00,,2013-05-25 11:12:00,
2013-05-25 06:21:00,65.0,58.0,30.21,ESE,113,0.0,6.0,77,0.00,,,0.00,,2013-05-25 11:21:00,
2013-05-25 06:32:00,64.0,57.0,30.22,SSE,155,0.0,1.0,78,0.00,,,0.00,,2013-05-25 11:32:00,
2013-05-25 06:42:00,64.0,57.0,30.22,SSE,155,0.0,1.0,78,0.00,,,0.00,,2013-05-25 11:42:00,
2013-05-25 06:52:00,64.0,57.0,30.21,SE,131,0.0,2.0,79,0.00,,,0.00,,2013-05-25 11:52:00,
2013-05-25 07:01:00,63.0,56.0,30.22,ESE,108,0.0,5.0,79,0.00,,,0.00,,2013-05-25 12:01:00,
2013-05-25 07:12:00,63.0,56.0,30.22,ESE,108,0.0,5.0,79,0.00,,,0.00,,2013-05-25 12:12:00,
2013-05-25 07:22:00,63.0,57.0,30.22,SW,217,0.0,3.0,80,0.00,,,0.00,,2013-05-25 12:22:00,
2013-05-25 07:32:00,63.0,57.0,30.22,SSE,148,0.0,3.0,80,0.00,,,0.00,,2013-05-25 12:32:00,
2013-05-25 07:42:00,63.0,57.0,30.22,SSE,148,0.0,3.0,80,0.00,,,0.00,,2013-05-25 12:42:00,
2013-05-25 07:52:00,63.0,56.0,30.22,East,86,0.0,3.0,79,0.00,,,0.00,,2013-05-25 12:52:00,
2013-05-25 08:02:00,64.0,57.0,30.22,SSE,159,1.0,4.0,78,0.00,,,0.00,,2013-05-25 13:02:00,
2013-05-25 08:11:00,64.0,57.0,30.22,SSE,159,1.0,4.0,78,0.00,,,0.00,,2013-05-25 13:11:00,
2013-05-25 08:21:00,64.0,57.0,30.22,South,172,1.0,4.0,78,0.00,,,0.00,,2013-05-25 13:21:00,
2013-05-25 08:32:00,65.0,57.0,30.22,East,87,0.0,7.0,76,0.00,,,0.00,,2013-05-25 13:32:00,
2013-05-25 08:42:00,65.0,57.0,30.22,East,87,0.0,7.0,76,0.00,,,0.00,,2013-05-25 13:42:00,
2013-05-25 08:52:00,66.0,58.0,30.22,SW,214,3.0,8.0,75,0.00,,,0.00,,2013-05-25 13:52:00,
2013-05-25 09:02:00,67.0,58.0,30.21,South,186,2.0,11.0,74,0.00,,,0.00,,2013-05-25 14:02:00,
2013-05-25 09:11:00,67.0,58.0,30.21,South,186,2.0,11.0,74,0.00,,,0.00,,2013-05-25 14:11:00,
2013-05-25 09:22:00,67.0,57.0,30.21,ENE,72,2.0,8.0,71,0.00,,,0.00,,2013-05-25 14:22:00,
2013-05-25 09:32:00,69.0,59.0,30.21,SE,134,2.0,10.0,70,0.00,,,0.00,,2013-05-25 14:32:00,
2013-05-25 09:42:00,69.0,59.0,30.21,SE,134,2.0,10.0,70,0.00,,,0.00,,2013-05-25 14:42:00,
2013-05-25 09:52:00,71.0,60.0,30.21,SSE,150,0.0,4.0,68,0.00,,,0.00,,2013-05-25 14:52:00,
2013-05-25 10:01:00,71.0,58.0,30.20,South,186,4.0,12.0,64,0.00,,,0.00,,2013-05-25 15:01:00,
2013-05-25 10:11:00,71.0,58.0,30.20,South,186,4.0,12.0,64,0.00,,,0.00,,2013-05-25 15:11:00,
2013-05-25 10:22:00,72.0,60.0,30.20,SSE,153,1.0,8.0,65,0.00,,,0.00,,2013-05-25 15:22:00,
2013-05-25 10:33:00,72.0,59.0,30.20,ESE,112,3.0,10.0,63,0.00,,,0.00,,2013-05-25 15:33:00,
2013-05-25 10:43:00,72.0,59.0,30.20,ESE,112,3.0,10.0,63,0.00,,,0.00,,2013-05-25 15:43:00,
2013-05-25 10:53:00,73.0,60.0,30.20,SSE,156,3.0,8.0,63,0.00,,,0.00,,2013-05-25 15:53:00,
2013-05-25 11:03:00,73.0,59.0,30.20,SE,131,3.0,14.0,62,0.00,,,0.00,,2013-05-25 16:03:00,
2013-05-25 11:12:00,73.0,59.0,30.20,SE,131,3.0,14.0,62,0.00,,,0.00,,2013-05-25 16:12:00,
2013-05-25 11:23:00,74.0,60.0,30.20,ESE,117,3.0,9.0,62,0.00,,,0.00,,2013-05-25 16:23:00,
2013-05-25 11:32:00,75.0,62.0,30.20,SSW,213,3.0,11.0,63,0.00,,,0.00,,2013-05-25 16:32:00,
2013-05-25 11:42:00,75.0,62.0,30.20,SSW,213,3.0,11.0,63,0.00,,,0.00,,2013-05-25 16:42:00,
2013-05-25 11:52:00,76.0,62.0,30.20,SE,138,3.0,9.0,61,0.00,,,0.00,,2013-05-25 16:52:00,
2013-05-25 12:02:00,77.0,63.0,30.19,SE,129,1.0,10.0,62,0.00,,,0.00,,2013-05-25 17:02:00,
2013-05-25 12:11:00,77.0,63.0,30.19,SE,129,1.0,10.0,62,0.00,,,0.00,,2013-05-25 17:11:00,
2013-05-25 12:22:00,77.0,62.0,30.19,SE,145,3.0,9.0,60,0.00,,,0.00,,2013-05-25 17:22:00,
2013-05-25 12:32:00,79.0,65.0,30.19,West,268,1.0,11.0,63,0.00,,,0.00,,2013-05-25 17:32:00,
2013-05-25 12:42:00,79.0,65.0,30.19,West,268,1.0,11.0,63,0.00,,,0.00,,2013-05-25 17:42:00,
2013-05-25 12:52:00,79.0,64.0,30.19,SSW,193,4.0,13.0,60,0.00,,,0.00,,2013-05-25 17:52:00,
2013-05-25 13:01:00,79.0,65.0,30.18,SW,215,1.0,9.0,63,0.00,,,0.00,,2013-05-25 18:01:00,
2013-05-25 13:11:00,79.0,65.0,30.18,SW,215,1.0,9.0,63,0.00,,,0.00,,2013-05-25 18:11:00,
2013-05-25 13:21:00,80.0,64.0,30.18,ESE,123,4.0,10.0,59,0.00,,,0.00,,2013-05-25 18:21:00,
2013-05-25 13:32:00,81.0,65.0,30.17,South,188,2.0,9.0,59,0.00,,,0.00,,2013-05-25 18:32:00,
2013-05-25 13:42:00,81.0,65.0,30.17,South,188,2.0,9.0,59,0.00,,,0.00,,2013-05-25 18:42:00,
2013-05-25 13:52:00,81.0,66.0,30.16,ESE,105,2.0,12.0,60,0.00,,,0.00,,2013-05-25 18:52:00,
2013-05-25 14:01:00,82.0,66.0,30.16,SSE,167,2.0,11.0,59,0.00,,,0.00,,2013-05-25 19:01:00,
2013-05-25 14:11:00,82.0,66.0,30.16,SSE,167,2.0,11.0,59,0.00,,,0.00,,2013-05-25 19:11:00,
2013-05-25 14:21:00,82.0,66.0,30.16,SSW,203,2.0,10.0,59,0.00,,,0.00,,2013-05-25 19:21:00,
2013-05-25 14:32:00,83.0,67.0,30.15,ESE,121,1.0,11.0,59,0.00,,,0.00,,2013-05-25 19:32:00,
2013-05-25 14:42:00,83.0,67.0,30.15,ESE,121,1.0,11.0,59,0.00,,,0.00,,2013-05-25 19:42:00,
2013-05-25 14:52:00,83.0,67.0,30.14,WSW,249,2.0,7.0,58,0.00,,,0.00,,2013-05-25 19:52:00,
2013-05-25 15:02:00,83.0,67.0,30.14,NE,48,1.0,12.0,58,0.00,,,0.00,,2013-05-25 20:02:00,
2013-05-25 15:11:00,83.0,67.0,30.14,NE,48,1.0,12.0,58,0.00,,,0.00,,2013-05-25 20:11:00,
2013-05-25 15:21:00,83.0,67.0,30.14,West,276,2.0,8.0,59,0.00,,,0.00,,2013-05-25 20:21:00,
2013-05-25 15:32:00,84.0,68.0,30.14,SE,136,3.0,10.0,59,0.00,,,0.00,,2013-05-25 20:32:00,
2013-05-25 15:42:00,84.0,68.0,30.14,SE,136,3.0,10.0,59,0.00,,,0.00,,2013-05-25 20:42:00,
2013-05-25 15:52:00,84.0,68.0,30.14,SE,136,1.0,11.0,59,0.00,,,0.00,,2013-05-25 20:52:00,
2013-05-25 16:02:00,84.0,69.0,30.13,South,187,2.0,10.0,61,0.00,,,0.00,,2013-05-25 21:02:00,
2013-05-25 16:11:00,84.0,69.0,30.13,South,187,2.0,10.0,61,0.00,,,0.00,,2013-05-25 21:11:00,
2013-05-25 16:21:00,83.0,68.0,30.13,SW,220,3.0,6.0,60,0.00,,,0.00,,2013-05-25 21:21:00,
2013-05-25 16:33:00,83.0,69.0,30.12,West,272,0.0,9.0,62,0.00,,,0.00,,2013-05-25 21:33:00,
2013-05-25 16:43:00,83.0,69.0,30.12,West,272,0.0,9.0,62,0.00,,,0.00,,2013-05-25 21:43:00,
2013-05-25 16:53:00,83.0,69.0,30.12,SW,233,2.0,9.0,63,0.00,,,0.00,,2013-05-25 21:53:00,
2013-05-25 17:03:00,84.0,70.0,30.11,North,3,1.0,9.0,62,0.00,,,0.00,,2013-05-25 22:03:00,
2013-05-25 17:12:00,84.0,70.0,30.11,North,3,1.0,9.0,62,0.00,,,0.00,,2013-05-25 22:12:00,
2013-05-25 17:22:00,84.0,70.0,30.11,SSW,194,2.0,8.0,63,0.00,,,0.00,,2013-05-25 22:22:00,
2013-05-25 17:32:00,84.0,70.0,30.10,ESE,105,2.0,8.0,62,0.00,,,0.00,,2013-05-25 22:32:00,
2013-05-25 17:42:00,84.0,70.0,30.10,ESE,105,2.0,8.0,62,0.00,,,0.00,,2013-05-25 22:42:00,
2013-05-25 17:52:00,82.0,69.0,30.10,West,280,2.0,5.0,65,0.00,,,0.00,,2013-05-25 22:52:00,
2013-05-25 18:02:00,82.0,70.0,30.10,SSW,196,0.0,7.0,67,0.00,,,0.00,,2013-05-25 23:02:00,
2013-05-25 18:12:00,82.0,70.0,30.10,SSW,196,0.0,7.0,67,0.00,,,0.00,,2013-05-25 23:12:00,
2013-05-25 18:22:00,83.0,70.0,30.09,South,187,2.0,7.0,65,0.00,,,0.00,,2013-05-25 23:22:00,
2013-05-25 18:32:00,82.0,69.0,30.08,SSW,204,2.0,13.0,66,0.00,,,0.00,,2013-05-25 23:32:00,
2013-05-25 18:42:00,82.0,69.0,30.08,SSW,204,2.0,13.0,66,0.00,,,0.00,,2013-05-25 23:42:00,
2013-05-25 18:52:00,81.0,69.0,30.08,South,177,1.0,4.0,67,0.00,,,0.00,,2013-05-25 23:52:00,
2013-05-25 19:01:00,80.0,69.0,30.08,SSW,198,2.0,7.0,69,0.00,,,0.00,,2013-05-26 00:01:00,
2013-05-25 19:11:00,80.0,69.0,30.08,SSW,198,2.0,7.0,69,0.00,,,0.00,,2013-05-26 00:11:00,
2013-05-25 19:21:00,79.0,69.0,30.08,SE,141,2.0,7.0,71,0.00,,,0.00,,2013-05-26 00:21:00,
2013-05-25 19:31:00,79.0,69.0,30.06,South,169,2.0,6.0,72,0.00,,,0.00,,2013-05-26 00:31:00,
2013-05-25 19:42:00,79.0,69.0,30.06,South,169,2.0,6.0,72,0.00,,,0.00,,2013-05-26 00:42:00,
2013-05-25 19:52:00,79.0,70.0,30.06,SSE,166,2.0,6.0,73,0.00,,,0.00,,2013-05-26 00:52:00,
2013-05-25 20:01:00,78.0,69.0,30.06,SSE,147,2.0,8.0,74,0.00,,,0.00,,2013-05-26 01:01:00,
2013-05-25 20:11:00,78.0,69.0,30.06,SSE,147,2.0,8.0,74,0.00,,,0.00,,2013-05-26 01:11:00,
2013-05-25 20:21:00,78.0,70.0,30.06,ESE,120,0.0,3.0,76,0.00,,,0.00,,2013-05-26 01:21:00,
2013-05-25 20:32:00,77.0,69.0,30.05,ESE,118,0.0,7.0,76,0.00,,,0.00,,2013-05-26 01:32:00,
2013-05-25 20:42:00,77.0,69.0,30.05,ESE,118,0.0,7.0,76,0.00,,,0.00,,2013-05-26 01:42:00,
2013-05-25 20:52:00,76.0,68.0,30.04,SSW,207,0.0,5.0,77,0.00,,,0.00,,2013-05-26 01:52:00,
2013-05-25 21:02:00,76.0,69.0,30.04,ESE,122,1.0,5.0,79,0.00,,,0.00,,2013-05-26 02:02:00,
2013-05-25 21:11:00,76.0,69.0,30.04,ESE,122,1.0,5.0,79,0.00,,,0.00,,2013-05-26 02:11:00,
2013-05-25 21:21:00,75.0,68.0,30.04,SW,232,0.0,4.0,80,0.00,,,0.00,,2013-05-26 02:21:00,
2013-05-25 21:32:00,74.0,68.0,30.04,SE,126,0.0,2.0,81,0.00,,,0.00,,2013-05-26 02:32:00,
2013-05-25 21:42:00,74.0,68.0,30.04,SE,126,0.0,2.0,81,0.00,,,0.00,,2013-05-26 02:42:00,
2013-05-25 21:52:00,74.0,68.0,30.04,ESE,114,0.0,1.0,82,0.00,,,0.00,,2013-05-26 02:52:00,
2013-05-25 22:01:00,74.0,68.0,30.05,SSE,167,0.0,2.0,82,0.00,,,0.00,,2013-05-26 03:01:00,
2013-05-25 22:11:00,74.0,68.0,30.05,SSE,167,0.0,2.0,82,0.00,,,0.00,,2013-05-26 03:11:00,
2013-05-25 22:21:00,73.0,68.0,30.06,SSW,200,0.0,2.0,83,0.00,,,0.00,,2013-05-26 03:21:00,
2013-05-25 22:33:00,73.0,68.0,30.06,SE,131,0.0,3.0,84,0.00,,,0.00,,2013-05-26 03:33:00,
2013-05-25 22:42:00,73.0,68.0,30.06,SE,131,0.0,3.0,84,0.00,,,0.00,,2013-05-26 03:42:00,
2013-05-25 22:53:00,73.0,68.0,30.08,ESE,122,0.0,2.0,84,0.00,,,0.00,,2013-05-26 03:53:00,
2013-05-25 23:02:00,73.0,68.0,30.09,SSW,210,0.0,2.0,85,0.00,,,0.00,,2013-05-26 04:02:00,
2013-05-25 23:12:00,73.0,68.0,30.09,SSW,210,0.0,2.0,85,0.00,,,0.00,,2013-05-26 04:12:00,
2013-05-25 23:23:00,73.0,68.0,30.09,SSW,212,0.0,3.0,85,0.00,,,0.00,,2013-05-26 04:23:00,
2013-05-25 23:33:00,73.0,68.0,30.10,ESE,120,0.0,4.0,85,0.00,,,0.00,,2013-05-26 04:33:00,
2013-05-25 23:42:00,73.0,68.0,30.10,ESE,120,0.0,4.0,85,0.00,,,0.00,,2013-05-26 04:42:00,
2013-05-25 23:52:00,73.0,68.0,30.10,SW,217,0.0,2.0,84,0.00,,,0.00,,2013-05-26 04:52:00,